Location: L�beck
(53.8752°N, 10.6787°E)
Time: 21:38:24
(UTC+01:00)

ISS - Pass Details

Date: 10 February 2018
Orbit: 402 x 407 km, 51.6° (Epoch: 24 February)

Event Time Altitude Azimuth Distance (km) Brightness Sun altitude
Rises 18:39:00 0° 277° (W) 2,322 1.7 -12.5°
Reaches altitude 10° 18:41:25 10° 261° (W) 1,460 0.5 -12.9°
Maximum altitude 18:43:55 20° 211° (SSW) 986 -1.4 -13.2°
Drops below altitude 10° 18:46:25 10° 160° (SSE) 1,455 -1.2 -13.6°
Enters shadow 18:47:34 - 150° (SSE) 1,848 -0.7 -13.8°
